Regional Weather Roundup
Issued by NWS

Home | Current Version | Previous Version | Graphics & Text | Print | Product List | Glossary On
Versions: 1 2 3 4 5 6 7 8 9 10 11 12 13 14 15 16 17 18 19 20 21 22 23 24 25 26 27 28 29 30 31 32 33 34 35 36 37 38 39 40 41 42 43 44 45 46 47 48 49 50
000
ASUS43 KOAX 040910
RWRNE

WEATHER ROUNDUP FOR NEBRASKA
NATIONAL WEATHER SERVICE OMAHA NE
400 AM CDT FRI SEP 04 2015

NOTES: SATELLITE DATA IS BEING USED TO AUGMENT CLOUD COVER ABOVE
       12000 FEET.
       "FAIR" INDICATES FEW OR NO CLOUDS BELOW 12,000 FEET WITH NO
       SIGNIFICANT WEATHER AND/OR OBSTRUCTIONS TO VISIBILITY.

  * THESE STATIONS DO NOT REPORT WEATHER SUCH AS RAIN...SNOW OR FOG.

NEZ001>004-019>022-054>056-041000-
NEBRASKA PANHANDLE

CITY           SKY/WX    TMP DP  RH WIND       PRES   REMARKS
SCOTTSBLUFF    CLEAR     59  55  87 N3        29.88R
ALLIANCE       PTCLDY    57  51  80 W3        29.85S
CHADRON        MOCLDY    70  55  59 SE6       29.79R
KIMBALL        CLEAR     54  50  87 W12       29.92S
SIDNEY         CLEAR     55  51  86 SW6       29.90S
$$

NEZ057>060-069>072-079>082-041000-
SOUTHWEST NEBRASKA

CITY           SKY/WX    TMP DP  RH WIND       PRES   REMARKS
NORTH PLATTE   MOCLDY    68  61  78 E5        29.79S
IMPERIAL       MOCLDY    67  63  87 W3        29.84R
LEXINGTON      MOCLDY    74  63  68 SE8       29.79F
MCCOOK         MOCLDY    75  58  55 SE10      29.77F
OGALLALA       PTCLDY    63  62  95 CALM      29.83R
$$

NEZ005>010-023>029-035>040-094-041000-
NORTH CENTRAL NEBRASKA

CITY           SKY/WX    TMP DP  RH WIND       PRES   REMARKS
VALENTINE      CLOUDY    67  63  87 NE13      29.78F
AINSWORTH      CLOUDY    70  64  83 N9        29.76F
BROKEN BOW     CLOUDY    73  64  73 SE8       29.78F
O`NEILL        CLOUDY    75  64  68 S8        29.80S
ORD            CLOUDY    70  65  84 SE3       29.79F
THEDFORD       LGT RAIN  70  64  81 SE5       29.77R
$$

NEZ041-046>049-061>064-073>077-083>087-041000-
SOUTH CENTRAL NEBRASKA

CITY           SKY/WX    TMP DP  RH WIND       PRES   REMARKS
GRAND ISLAND   TSTM      73  66  78 S17G36    29.83R
AURORA         TSTM      74  66  77 S16G22    29.82S
HASTINGS       MOCLDY    78  62  57 SE16G23   29.82S
HEBRON         MOCLDY    76  64  66 S14G21    29.84S THUNDER
HOLDREGE       MOCLDY    73  60  63 SE9       29.81R
KEARNEY *      MOCLDY    73  61  64 SE9       29.81S
YORK           MOCLDY    75  66  73 S14G21    29.83F
$$

NEZ011>018-030>034-042>045-041000-
NORTHEAST NEBRASKA

CITY           SKY/WX    TMP DP  RH WIND       PRES   REMARKS
NORFOLK        PTCLDY    76  65  68 S13       29.82R
ALBION         MOCLDY    71  64  78 SE5       29.82S
BLAIR          PTCLDY    73  66  79 S10       29.86S
COLUMBUS *     MOCLDY    75  63  64 S10       29.83R
FREMONT        MOCLDY    75  66  75 SE8       29.85S
TEKAMAH        PTCLDY    72  69  90 SE7       29.84F
WAYNE          PTCLDY    73  68  84 S6        29.83S
$$

NEZ050>053-065>068-078-088>093-041000-
SOUTHEAST NEBRASKA

CITY           SKY/WX    TMP DP  RH WIND       PRES   REMARKS
LINCOLN        CLOUDY    77  67  71 S14       29.86S
OMAHA EPPLEY   MOCLDY    75  68  78 S13       29.86F
BEATRICE       MOCLDY    74  67  80 S10       29.88R
FALLS CITY     MOCLDY    74  68  81 S8        29.89S
NEBRASKA CITY  MOCLDY    72  66  81 S8        29.89S
PLATTSMOUTH    MOCLDY    71  67  87 SE8       29.88S
$$

NEZ044-045-051>053-067-041000-
OMAHA AREA

CITY           SKY/WX    TMP DP  RH WIND       PRES   REMARKS
OMAHA EPPLEY   MOCLDY    75  68  78 S13       29.86F
BLAIR          PTCLDY    73  66  79 S10       29.86S
FREMONT        MOCLDY    75  66  75 SE8       29.85S
MILLARD        MOCLDY    74  69  83 SE6       29.86S
OFFUTT AFB     PTCLDY    72  68  88 E7        29.86S
PLATTSMOUTH    MOCLDY    71  67  87 SE8       29.88S
WAHOO          FAIR      71  68  89 SE6       29.85S
$$




USA.gov is the U.S. government's official web portal to all federal, state and local government web resources and services.